(346991) = 2010 CU140

Discovered at Kitt Peak on 2003-05-10 by Spacewatch.

Orbit

Orbit type: Main Belt

Note: WebGL enabled browser required.

epoch2023-09-13.0
epoch JD2460200.5
perihelion date2021-05-21.13079
perihelion JD2459355.63079
argument of perihelion (°)116.48770
ascending node (°)61.71092
inclination (°)2.24172
eccentricity0.1191811
perihelion distance (AU)2.1009344
Tisserand w.r.t. Jupiter3.5
ΔV w.r.t. Earth (km/sec)9.0
semimajor axis (AU)2.3852059
mean anomaly (°)226.05000
mean daily motion (°/day)0.26755620
aphelion distance (AU)2.669
period (years)3.68
P-vector [x]-0.99890265
P-vector [y]0.01461707
P-vector [z]0.04449546
Q-vector [x]-0.03173536
Q-vector [y]-0.90994074
Q-vector [z]-0.41352233
absolute magnitude17.64
phase slope0.15
uncertainty0
referenceMPEC 2023-Y06
observations used238
oppositions13
arc length (days)8049
first opposition used2001
last opposition used2023
residual rms (arc-secs)0.80
perturbers coarse indicatorM-v
perturbers precise indicator003Ek
first observation date used2001-11-20.0
last observation date used2023-12-04.0
computer nameMPCLINUX
JD of orbit computation2456847.610321
perihelion JD uncertainty (days)9.7823E-05
argument of perihelion uncertainty (°)1.2131E-04
ascending node uncertainty (°)1.1765E-04
inclination uncertainty (°)7.3122E-06
eccentricity uncertainty 6.1587E-08
perihelion distance uncertainty (AU)1.4527E-07
Minimum Orbit Intersection Distances (in AU)
for orbit epoch: 2460200.5, reference: E2023-Y06
Mercury1.69449
Venus1.38123
Earth1.10439
Mars0.44244
Jupiter2.28701
Saturn6.60918
Uranus16.337
Neptune27.1945

Observations

241 total observations over interval: 2001 11 20.35154 – 2023 12 04.302995
These data are available for download (format description).

Date (UT) J2000 RA J2000 Dec Magn Location Ref
2001 11 20.35154 03 37 31.47 +19 06 26.2 21.1 V 691 – Steward Observatory, Kitt Peak-Spacewatch MPS 382285
2001 11 20.39233 03 37 28.74 +19 06 19.4 20.7 V 691 – Steward Observatory, Kitt Peak-Spacewatch MPS 382285
2001 11 20.41459 03 37 27.29 +19 06 15.6 20.9 V 691 – Steward Observatory, Kitt Peak-Spacewatch MPS 382285
2003 05 10.25871 14 18 22.06 -12 21 40.1 20.9 V 691 – Steward Observatory, Kitt Peak-Spacewatch MPS 382285
2003 05 10.28493 14 18 20.65 -12 21 35.6 20.5 V 691 – Steward Observatory, Kitt Peak-Spacewatch MPS 382285
2003 05 10.31115 14 18 19.22 -12 21 31.7 20.0 V 691 – Steward Observatory, Kitt Peak-Spacewatch MPS 382285
2003 06 05.18242 14 03 26.94 -11 46 31.2 22.0 V 691 – Steward Observatory, Kitt Peak-Spacewatch MPS 382285
2003 06 05.20907 14 03 26.55 -11 46 32.3 21.9 V 691 – Steward Observatory, Kitt Peak-Spacewatch MPS 382285
2003 06 05.23614 14 03 26.13 -11 46 33.0 22.1 V 691 – Steward Observatory, Kitt Peak-Spacewatch MPS 382285
2004 09 11.33434 23 16 36.24 -08 26 10.3 21.0 V 691 – Steward Observatory, Kitt Peak-Spacewatch MPS 382285
2004 09 11.36239 23 16 34.59 -08 26 19.4 21.1 V 691 – Steward Observatory, Kitt Peak-Spacewatch MPS 382285
2004 09 11.39378 23 16 32.81 -08 26 30.1 21.1 V 691 – Steward Observatory, Kitt Peak-Spacewatch MPS 382285
2005 11 30.44816 07 03 17.22 +24 20 37.4 21.0 V 691 – Steward Observatory, Kitt Peak-Spacewatch MPS 382285
2005 11 30.46558 07 03 16.65 +24 20 39.6 21.3 V 691 – Steward Observatory, Kitt Peak-Spacewatch MPS 382285
2005 11 30.48291 07 03 16.08 +24 20 41.9 21.1 V 691 – Steward Observatory, Kitt Peak-Spacewatch MPS 382285
2008 10 02.20788 01 23 05.44 +06 01 30.5 21.4 V 691 – Steward Observatory, Kitt Peak-Spacewatch MPS 382285
2008 10 02.22547 01 23 04.43 +06 01 24.6 21.8 V 691 – Steward Observatory, Kitt Peak-Spacewatch MPS 382285
2008 10 02.24306 01 23 03.46 +06 01 20.6 21.6 V 691 – Steward Observatory, Kitt Peak-Spacewatch MPS 382285
2008 10 24.22285 01 02 32.17 +04 11 04.1 20.7 V G96 – Mt. Lemmon Survey MPS 382285
2008 10 24.23050 01 02 31.74 +04 11 02.0 21.4 V G96 – Mt. Lemmon Survey MPS 382285
2008 10 24.23818 01 02 31.30 +04 10 59.9 20.8 V G96 – Mt. Lemmon Survey MPS 382285
2008 10 24.24579 01 02 30.94 +04 10 57.6 20.1 V G96 – Mt. Lemmon Survey MPS 382285
2008 11 24.14349 00 44 41.17 +02 55 55.6 21.9 V G96 – Mt. Lemmon Survey MPS 382285
2008 11 24.15179 00 44 41.02 +02 55 55.4 21.8 V G96 – Mt. Lemmon Survey MPS 382285
2008 11 24.16005 00 44 40.95 +02 55 55.6 22.5 V G96 – Mt. Lemmon Survey MPS 382285
2008 11 24.16844 00 44 40.84 +02 55 55.4 22.0 V G96 – Mt. Lemmon Survey MPS 382285
2010 02 13.29480 10 27 40.94 +14 07 36.1 19.6   704 – Lincoln Laboratory ETS, New Mexico MPS 313882
2010 02 13.30703 10 27 40.22 +14 07 39.7 20.1   704 – Lincoln Laboratory ETS, New Mexico MPS 313882
2010 02 13.33147 10 27 38.82 +14 07 47.2 19.6   704 – Lincoln Laboratory ETS, New Mexico MPS 313882
2010 02 19.27941 10 22 05.91 +14 41 51.7 19.2   704 – Lincoln Laboratory ETS, New Mexico MPS 313882
2010 02 19.29148 10 22 05.34 +14 41 57.2 20.3   704 – Lincoln Laboratory ETS, New Mexico MPS 313882
2010 02 19.30355 10 22 04.49 +14 42 00.3 19.9   704 – Lincoln Laboratory ETS, New Mexico MPS 313882
2010 02 19.31564 10 22 03.68 +14 42 04.2 19.8   704 – Lincoln Laboratory ETS, New Mexico MPS 313882
2010 02 19.32772 10 22 03.12 +14 42 08.9 19.8   704 – Lincoln Laboratory ETS, New Mexico MPS 313882
2010 03 04.21785 10 09 48.48 +15 47 03.4 19.9 V 691 – Steward Observatory, Kitt Peak-Spacewatch MPS 316832
2010 03 04.23421 10 09 47.57 +15 47 07.8 19.8 V 691 – Steward Observatory, Kitt Peak-Spacewatch MPS 316832
2010 03 04.25056 10 09 46.65 +15 47 11.9 19.9 V 691 – Steward Observatory, Kitt Peak-Spacewatch MPS 316832
2012 11 13.37101 03 25 32.59 +18 06 50.2 20.3 V G96 – Mt. Lemmon Survey MPS 441813
2012 11 13.37707 03 25 32.16 +18 06 49.1 20.5 V G96 – Mt. Lemmon Survey MPS 441813
2012 11 13.38313 03 25 31.76 +18 06 48.0 20.7 V G96 – Mt. Lemmon Survey MPS 441813
2012 11 13.38928 03 25 31.33 +18 06 47.0 20.5 V G96 – Mt. Lemmon Survey MPS 441813
2012 11 20.26774 03 18 09.86 +17 45 46.9 20.5 V G96 – Mt. Lemmon Survey MPS 443466
2012 11 20.27653 03 18 09.28 +17 45 45.3 20.6 V G96 – Mt. Lemmon Survey MPS 443466
2012 11 20.28529 03 18 08.74 +17 45 43.7 20.2 V G96 – Mt. Lemmon Survey MPS 443466
2012 11 20.29409 03 18 08.13 +17 45 42.0 20.6 V G96 – Mt. Lemmon Survey MPS 443466
2012 12 04.14776 03 04 36.61 +17 05 45.3   691 – Steward Observatory, Kitt Peak-Spacewatch MPS 445946
2012 12 04.21671 03 04 32.90 +17 05 34.6   691 – Steward Observatory, Kitt Peak-Spacewatch MPS 445946
2012 12 04.28573 03 04 29.21 +17 05 24.5   691 – Steward Observatory, Kitt Peak-Spacewatch MPS 445946
2012 12 06.09471 03 02 58.96 +17 00 57.6   691 – Steward Observatory, Kitt Peak-Spacewatch MPS 445946
2012 12 06.18012 03 02 54.62 +17 00 45.1   691 – Steward Observatory, Kitt Peak-Spacewatch MPS 445946
2012 12 06.24422 03 02 51.41 +17 00 36.1   691 – Steward Observatory, Kitt Peak-Spacewatch MPS 445946
2014 03 27.53076 14 26 11.101 -11 54 58.06 20.5 w F51 – Pan-STARRS 1, Haleakala MPS 508456
2014 03 27.54210 14 26 10.720 -11 54 56.69 20.5 w F51 – Pan-STARRS 1, Haleakala MPS 508456
2014 03 27.55296 14 26 10.375 -11 54 55.30 20.3 w F51 – Pan-STARRS 1, Haleakala MPS 508456
2014 03 27.56378 14 26 10.016 -11 54 54.09 20.2 w F51 – Pan-STARRS 1, Haleakala MPS 508456
2014 04 05.52320 14 20 34.228 -11 31 53.65 20.2 w F51 – Pan-STARRS 1, Haleakala MPS 511023
2014 04 05.53378 14 20 33.725 -11 31 51.71 20.2 w F51 – Pan-STARRS 1, Haleakala MPS 511023
2014 04 05.54432 14 20 33.220 -11 31 49.75 20.0 w F51 – Pan-STARRS 1, Haleakala MPS 511023
2014 04 05.55489 14 20 32.720 -11 31 47.86 20.0 w F51 – Pan-STARRS 1, Haleakala MPS 511023
2014 04 20.33563 14 07 41.14 -10 40 07.7 20.0 V 703 – Catalina Sky Survey MPS 512388
2014 04 20.34931 14 07 40.31 -10 40 03.9 19.4 V 703 – Catalina Sky Survey MPS 512388
2014 04 20.35615 14 07 39.90 -10 40 03.8 18.8 V 703 – Catalina Sky Survey MPS 512388
2014 04 22.38925 14 05 43.61 -10 32 26.2 19.5 V G96 – Mt. Lemmon Survey MPS 512388
2014 04 22.39290 14 05 43.39 -10 32 25.8 19.8 V G96 – Mt. Lemmon Survey MPS 512388
2014 04 22.39654 14 05 43.20 -10 32 24.8 19.6 V G96 – Mt. Lemmon Survey MPS 512388
2014 04 22.40019 14 05 42.96 -10 32 23.7 19.5 V G96 – Mt. Lemmon Survey MPS 512388
2014 04 23.14803 14 05 00.47 -10 29 28.9 19.6 V W84 – Cerro Tololo-DECam MPS 789904
2014 04 23.15120 14 05 00.28 -10 29 28.2   W84 – Cerro Tololo-DECam MPS 789904
2014 04 23.15442 14 05 00.09 -10 29 27.5   W84 – Cerro Tololo-DECam MPS 789904
2014 04 23.15770 14 04 59.89 -10 29 26.7   W84 – Cerro Tololo-DECam MPS 789904
2014 04 23.16094 14 04 59.69 -10 29 26.0   W84 – Cerro Tololo-DECam MPS 789904
2014 04 23.39448 14 04 46.324 -10 28 40.53 19.6 w F51 – Pan-STARRS 1, Haleakala MPS 512388
2014 04 23.40717 14 04 45.557 -10 28 37.72 19.3 w F51 – Pan-STARRS 1, Haleakala MPS 512388
2014 04 23.41988 14 04 44.788 -10 28 34.79 19.4 w F51 – Pan-STARRS 1, Haleakala MPS 512388
2014 04 23.43260 14 04 44.020 -10 28 32.00 19.5 w F51 – Pan-STARRS 1, Haleakala MPS 512388
2014 04 24.16959 14 04 01.86 -10 25 41.2 19.8   W84 – Cerro Tololo-DECam MPS 789904
2014 04 24.17278 14 04 01.67 -10 25 40.5   W84 – Cerro Tololo-DECam MPS 789904
2014 04 24.17599 14 04 01.48 -10 25 39.8   W84 – Cerro Tololo-DECam MPS 789904
2014 04 24.17923 14 04 01.28 -10 25 39.1   W84 – Cerro Tololo-DECam MPS 789904
2014 04 24.18245 14 04 01.09 -10 25 38.4   W84 – Cerro Tololo-DECam MPS 789904
2014 04 25.16738 14 03 04.79 -10 22 00.5 19.7 V W84 – Cerro Tololo-DECam MPS 789904
2014 04 25.17054 14 03 04.59 -10 21 59.7   W84 – Cerro Tololo-DECam MPS 789904
2014 04 25.17371 14 03 04.41 -10 21 59.1   W84 – Cerro Tololo-DECam MPS 789904
2014 04 25.17696 14 03 04.21 -10 21 58.3   W84 – Cerro Tololo-DECam MPS 789904
2014 04 25.18021 14 03 04.02 -10 21 57.6   W84 – Cerro Tololo-DECam MPS 789904
2014 04 27.06816 14 01 16.91 -10 15 05.3 19.4 V W84 – Cerro Tololo-DECam MPS 789904
2014 04 27.07137 14 01 16.72 -10 15 04.6   W84 – Cerro Tololo-DECam MPS 789904
2014 04 27.07455 14 01 16.54 -10 15 04.0   W84 – Cerro Tololo-DECam MPS 789904
2014 04 27.07777 14 01 16.34 -10 15 03.3   W84 – Cerro Tololo-DECam MPS 789904
